Mountain Home, AR

7:12 AM CDT on April 25, 2017 (GMT -0500)
Baxter County Regional

Weather History for KBPK - August, 2013

Change the Weather History Date:

Sunday, August 25, 2013

  Actual Average (KFLP) Record (KFLP)
Temperature  
Mean Temperature 80 °F -  
Max Temperature 91 °F 88 °F 100 °F (1998)
Min Temperature 69 °F 65 °F 51 °F (2015)
Cooling Degree Days 14    
Growing Degree Days 30 (Base 50)    
Moisture  
Dew Point 69 °F    
Average Humidity 76    
Maximum Humidity 93    
Minimum Humidity 46    
Precipitation  
Precipitation 0.00 in - - ()
Sea Level Pressure  
Sea Level Pressure 30.18 in    
Wind  
Wind Speed 3 mph (ESE)    
Max Wind Speed 7 mph    
Max Gust Speed -    
Visibility 6 miles    
Events      
Averages and records for this station are not official NWS values.
T = Trace of Precipitation, MM = Missing Value Source: NWS Daily Summary

Daily Weather History Graph

Daily Weather History Graph

Search for Another Location

Airport or City:

Trip Planner

Search our weather history database for the weather conditions in past years. The results will help you decide how hot, cold, wet, or windy it might be!

Date:

Astronomy

Aug. 25, 2013 Rise Set
Actual Time 6:35 AM CDT 7:47 PM CDT
Civil Twilight 6:09 AM CDT 8:13 PM CDT
Nautical Twilight 5:37 AM CDT 8:45 PM CDT
Astronomical Twilight 5:04 AM CDT 9:18 PM CDT
Moon 10:29 PM CDT 11:28 AM CDT
Length of Visible Light 14h 04m
Length of Day
13h 11m
Waning Gibbous, 75% of the Moon is Illuminated
Aug 25
Waning Gibbous
Aug 28
Last Quarter
Sep 5
New
Sep 12
First Quarter
Sep 19
Full

Hourly Weather History & Observations

Time (CDT) Temp. Heat Index Dew Point Humidity Pressure Visibility Wind Dir Wind Speed Gust Speed Precip Events Conditions
12:53 AM 73.0 °F - 68.0 °F 84% 30.15 in 6.0 mi Calm Calm - N/A   Haze
1:53 AM 73.0 °F - 68.0 °F 84% 30.15 in 6.0 mi East 3.5 mph - N/A   Haze
2:53 AM 72.0 °F - 68.0 °F 87% 30.15 in 5.0 mi East 3.5 mph - N/A   Clear
3:53 AM 71.1 °F - 68.0 °F 90% 30.15 in 4.0 mi ENE 3.5 mph - N/A   Clear
4:53 AM 70.0 °F - 68.0 °F 93% 30.17 in 3.0 mi ENE 4.6 mph - N/A   Clear
5:53 AM 69.1 °F - 66.9 °F 93% 30.19 in 3.0 mi Calm Calm - N/A   Clear
6:45 AM 69.8 °F - 66.2 °F 88% 30.23 in 2.0 mi Calm Calm - N/A   Clear
6:53 AM 69.1 °F - 66.9 °F 93% 30.21 in 1.8 mi Calm Calm - N/A   Clear
7:00 AM 69.8 °F - 66.2 °F 88% 30.24 in 2.0 mi ENE 3.5 mph - N/A   Clear
7:36 AM 71.6 °F - 68.0 °F 88% 30.25 in 3.0 mi Calm Calm - N/A   Clear
7:53 AM 71.1 °F - 68.0 °F 90% 30.22 in 3.0 mi ENE 4.6 mph - N/A   Clear
8:53 AM 75.0 °F - 70.0 °F 84% 30.22 in 5.0 mi Calm Calm - N/A   Haze
9:53 AM 79.0 °F - 70.0 °F 74% 30.22 in 5.0 mi SSE 3.5 mph - N/A   Haze
10:53 AM 82.9 °F 87.5 °F 71.1 °F 67% 30.22 in 6.0 mi Variable 3.5 mph - N/A   Haze
11:53 AM 84.9 °F 90.1 °F 71.1 °F 63% 30.20 in 7.0 mi Variable 3.5 mph - N/A   Partly Cloudy
12:53 PM 87.1 °F 92.8 °F 71.1 °F 59% 30.19 in 8.0 mi Variable 3.5 mph - N/A   Partly Cloudy
1:53 PM 88.0 °F 92.9 °F 70.0 °F 55% 30.18 in 7.0 mi Variable 4.6 mph - N/A   Scattered Clouds
2:53 PM 89.1 °F 95.0 °F 71.1 °F 55% 30.16 in 8.0 mi Variable 4.6 mph - N/A   Clear
3:53 PM 90.0 °F 92.8 °F 66.9 °F 46% 30.14 in 8.0 mi Calm Calm - N/A   Clear
4:53 PM 89.1 °F 93.7 °F 69.1 °F 52% 30.14 in 8.0 mi SSE 6.9 mph - N/A   Partly Cloudy
5:53 PM 88.0 °F 91.4 °F 68.0 °F 51% 30.14 in 7.0 mi SSE 6.9 mph - N/A   Clear
6:53 PM 84.9 °F 90.1 °F 71.1 °F 63% 30.14 in 7.0 mi SSE 4.6 mph - N/A   Clear
7:53 PM 81.0 °F 84.9 °F 71.1 °F 72% 30.15 in 7.0 mi SE 3.5 mph - N/A   Clear
8:53 PM 79.0 °F - 70.0 °F 74% 30.17 in 8.0 mi SE 3.5 mph - N/A   Clear
9:53 PM 78.1 °F - 71.1 °F 79% 30.19 in 8.0 mi SE 3.5 mph - N/A   Clear
10:53 PM 77.0 °F - 71.1 °F 82% 30.20 in 7.0 mi SE 3.5 mph - N/A   Clear
11:53 PM 75.0 °F - 71.1 °F 87% 30.20 in 6.0 mi SE 3.5 mph - N/A   Clear